UAL5512 KASE-KLAX

Flight info

Callsign UAL5512
Flight time 1h 54m
Altitude 38000
Route LINDZ JNC PEEWE Q98 HAKMN ANJLL4
Aircraft A319/M-SDE3FGHIRWY/LB1

Departure

Time 2026-04-25 23:38
Airport Aspen-Pitkin County Airport (Sardy Field) (KASE)

Arrival

Time 2026-04-26 01:32
Airport Los Angeles International Airport (KLAX)
Time Latitude Longitude Altitude Speed Heading
2026-04-25 23:17 39.21929 -106.86467 7794 ft 0 kts 74°
2026-04-25 23:27 39.21926 -106.86484 7784 ft 2 kts 73°
2026-04-25 23:27 39.21921 -106.86504 7781 ft 2 kts 73°
2026-04-25 23:27 39.21916 -106.86524 7786 ft 1 kts 74°
2026-04-25 23:28 39.21916 -106.86526 7786 ft 0 kts 75°
2026-04-25 23:31 39.21914 -106.86520 7787 ft 1 kts 105°
2026-04-25 23:31 39.21912 -106.86518 7787 ft 0 kts 118°
2026-04-25 23:33 39.21908 -106.86515 7779 ft 2 kts 144°
2026-04-25 23:33 39.21871 -106.86516 7797 ft 9 kts 187°
2026-04-25 23:33 39.21846 -106.86521 7799 ft 3 kts 190°
2026-04-25 23:34 39.21812 -106.86520 7801 ft 7 kts 174°
2026-04-25 23:34 39.21745 -106.86493 7806 ft 13 kts 158°
2026-04-25 23:34 39.21649 -106.86445 7814 ft 17 kts 159°
2026-04-25 23:34 39.21531 -106.86389 7823 ft 19 kts 160°
2026-04-25 23:35 39.21408 -106.86331 7828 ft 18 kts 160°
2026-04-25 23:35 39.21296 -106.86277 7841 ft 13 kts 159°
2026-04-25 23:35 39.21225 -106.86250 7842 ft 6 kts 181°
2026-04-25 23:35 39.21224 -106.86250 7842 ft 0 kts 182°
2026-04-25 23:36 39.21219 -106.86250 7843 ft 2 kts 184°
2026-04-25 23:36 39.21202 -106.86258 7847 ft 6 kts 206°
2026-04-25 23:36 39.21191 -106.86348 7841 ft 0 kts 339°
2026-04-25 23:37 39.21203 -106.86354 7836 ft 0 kts 339°
2026-04-25 23:37 39.21319 -106.86409 7837 ft 42 kts 340°
2026-04-25 23:37 39.21757 -106.86621 7805 ft 93 kts 340°
2026-04-25 23:37 39.22526 -106.86987 7742 ft 142 kts 340°
2026-04-25 23:38 39.23565 -106.87486 7832 ft 164 kts 338°
2026-04-25 23:38 39.24641 -106.87976 8327 ft 169 kts 338°
2026-04-25 23:38 39.25820 -106.88263 8827 ft 174 kts 345°
2026-04-25 23:38 39.26940 -106.88795 9427 ft 172 kts 315°
2026-04-25 23:39 39.27527 -106.90153 9710 ft 185 kts 282°
2026-04-25 23:39 39.27777 -106.91850 9853 ft 206 kts 281°
2026-04-25 23:39 39.28056 -106.93765 9980 ft 229 kts 280°
2026-04-25 23:39 39.28368 -106.95880 10177 ft 252 kts 278°
2026-04-25 23:40 39.28710 -106.98189 10600 ft 267 kts 278°
2026-04-25 23:40 39.29073 -107.00544 11456 ft 268 kts 280°
2026-04-25 23:40 39.29906 -107.02736 12156 ft 281 kts 303°
2026-04-25 23:40 39.31147 -107.04709 12919 ft 285 kts 307°
2026-04-25 23:41 39.32473 -107.06633 13674 ft 290 kts 307°
2026-04-25 23:41 39.33858 -107.08601 13893 ft 311 kts 308°
2026-04-25 23:41 39.35362 -107.10743 14041 ft 332 kts 308°
2026-04-25 23:41 39.36935 -107.12998 14475 ft 341 kts 308°
2026-04-25 23:42 39.38323 -107.15488 14964 ft 341 kts 290°
2026-04-25 23:42 39.38776 -107.18449 15560 ft 338 kts 267°
2026-04-25 23:42 39.38488 -107.21452 16219 ft 338 kts 255°
2026-04-25 23:42 39.37834 -107.24378 16839 ft 340 kts 250°
2026-04-25 23:43 39.37049 -107.27281 17449 ft 344 kts 249°
2026-04-25 23:43 39.36272 -107.30176 18058 ft 347 kts 250°
2026-04-25 23:43 39.35541 -107.33160 18620 ft 350 kts 252°
2026-04-25 23:43 39.34872 -107.36198 19233 ft 352 kts 253°
2026-04-25 23:44 39.34251 -107.39264 19869 ft 353 kts 255°
2026-04-25 23:44 39.33655 -107.42350 20511 ft 355 kts 255°
2026-04-25 23:44 39.33066 -107.45447 21142 ft 356 kts 255°
2026-04-25 23:44 39.32473 -107.48554 21766 ft 357 kts 256°
2026-04-25 23:45 39.31872 -107.51667 22367 ft 358 kts 256°
2026-04-25 23:45 39.31272 -107.54748 23002 ft 359 kts 256°
2026-04-25 23:45 39.30657 -107.57874 23558 ft 360 kts 256°
2026-04-25 23:45 39.30037 -107.61014 24022 ft 361 kts 255°
2026-04-25 23:46 39.29413 -107.64160 24496 ft 362 kts 255°
2026-04-25 23:46 39.28787 -107.67316 24953 ft 364 kts 255°
2026-04-25 23:46 39.28158 -107.70485 25417 ft 365 kts 255°
2026-04-25 23:46 39.27526 -107.73665 25866 ft 366 kts 255°
2026-04-25 23:47 39.26890 -107.76856 26312 ft 368 kts 255°
2026-04-25 23:47 39.26258 -107.80017 26733 ft 369 kts 255°
2026-04-25 23:47 39.25614 -107.83233 27129 ft 371 kts 255°
2026-04-25 23:47 39.24964 -107.86467 27549 ft 373 kts 255°
2026-04-25 23:48 39.24312 -107.89709 27976 ft 374 kts 255°
2026-04-25 23:48 39.23659 -107.92968 28406 ft 376 kts 255°
2026-04-25 23:48 39.23002 -107.96244 28820 ft 378 kts 255°
2026-04-25 23:48 39.22341 -107.99536 29215 ft 380 kts 255°
2026-04-25 23:49 39.21675 -108.02841 29615 ft 382 kts 255°
2026-04-25 23:49 39.21012 -108.06121 29949 ft 384 kts 255°
2026-04-25 23:49 39.20336 -108.09455 30281 ft 385 kts 255°
2026-04-25 23:49 39.19656 -108.12803 30630 ft 387 kts 255°
2026-04-25 23:50 39.18977 -108.16163 30975 ft 388 kts 255°
2026-04-25 23:50 39.18294 -108.19526 31311 ft 389 kts 255°
2026-04-25 23:50 39.17607 -108.22901 31642 ft 390 kts 255°
2026-04-25 23:50 39.16916 -108.26280 32026 ft 389 kts 255°
2026-04-25 23:51 39.16224 -108.29636 32503 ft 386 kts 255°
2026-04-25 23:51 39.15538 -108.32972 33025 ft 383 kts 255°
2026-04-25 23:51 39.14869 -108.36232 33559 ft 380 kts 255°
2026-04-25 23:51 39.14197 -108.39513 34016 ft 378 kts 255°
2026-04-25 23:52 39.13529 -108.42778 34413 ft 376 kts 255°
2026-04-25 23:52 39.12860 -108.46032 34781 ft 375 kts 255°
2026-04-25 23:52 39.12192 -108.49274 35124 ft 374 kts 255°
2026-04-25 23:52 39.11523 -108.52509 35463 ft 374 kts 255°
2026-04-25 23:53 39.10855 -108.55737 35806 ft 373 kts 255°
2026-04-25 23:53 39.10187 -108.58956 36149 ft 372 kts 255°
2026-04-25 23:53 39.09523 -108.62169 36467 ft 371 kts 255°
2026-04-25 23:53 39.08869 -108.65325 36775 ft 370 kts 255°
2026-04-25 23:54 39.08204 -108.68517 37070 ft 369 kts 255°
2026-04-25 23:54 39.07539 -108.71701 37398 ft 368 kts 255°
2026-04-25 23:54 39.06862 -108.74867 37642 ft 367 kts 253°
2026-04-25 23:55 39.04671 -108.80782 37717 ft 369 kts 239°
2026-04-25 23:55 39.01329 -108.85851 37694 ft 372 kts 233°
2026-04-25 23:56 38.97854 -108.90732 37677 ft 373 kts 232°
2026-04-25 23:56 38.94328 -108.95641 37664 ft 376 kts 232°
2026-04-25 23:57 38.90746 -109.00643 37652 ft 385 kts 232°
2026-04-25 23:57 38.87085 -109.05768 37659 ft 393 kts 232°
2026-04-25 23:58 38.83405 -109.10906 37664 ft 394 kts 232°
2026-04-25 23:58 38.79695 -109.16075 37660 ft 394 kts 232°
2026-04-25 23:59 38.75986 -109.21240 37651 ft 393 kts 232°
2026-04-25 23:59 38.72274 -109.26396 37658 ft 394 kts 232°
2026-04-26 00:00 38.68553 -109.31558 37654 ft 394 kts 232°
2026-04-26 00:00 38.64862 -109.36685 37661 ft 394 kts 232°
2026-04-26 00:01 38.61142 -109.41841 37668 ft 394 kts 232°
2026-04-26 00:01 38.57422 -109.46987 37681 ft 394 kts 232°
2026-04-26 00:02 38.53694 -109.52130 37675 ft 394 kts 232°
2026-04-26 00:02 38.49981 -109.57235 37672 ft 395 kts 232°
2026-04-26 00:03 38.46249 -109.62369 37666 ft 395 kts 232°
2026-04-26 00:03 38.42512 -109.67502 37655 ft 395 kts 231°
2026-04-26 00:04 38.38789 -109.72590 37642 ft 395 kts 231°
2026-04-26 00:04 38.35046 -109.77708 37644 ft 394 kts 231°
2026-04-26 00:05 38.31310 -109.82823 37636 ft 394 kts 231°
2026-04-26 00:05 38.27569 -109.87929 37638 ft 394 kts 231°
2026-04-26 00:06 38.23822 -109.93032 37634 ft 395 kts 231°
2026-04-26 00:06 38.20094 -109.98098 37632 ft 395 kts 231°
2026-04-26 00:07 38.16342 -110.03184 37640 ft 394 kts 231°
2026-04-26 00:07 38.12593 -110.08271 37638 ft 394 kts 231°
2026-04-26 00:08 38.08850 -110.13340 37638 ft 393 kts 231°
2026-04-26 00:08 38.05729 -110.17550 37638 ft 395 kts 231°
2026-04-26 00:09 38.01361 -110.23418 37637 ft 394 kts 230°
2026-04-26 00:09 37.97596 -110.28474 37636 ft 394 kts 231°
2026-04-26 00:10 37.94476 -110.32682 37637 ft 394 kts 231°
2026-04-26 00:10 37.90717 -110.37732 37636 ft 394 kts 231°
2026-04-26 00:11 37.86347 -110.43587 37626 ft 393 kts 231°
2026-04-26 00:11 37.83198 -110.47804 37629 ft 394 kts 231°
2026-04-26 00:12 37.79460 -110.52800 37626 ft 394 kts 230°
2026-04-26 00:12 37.75693 -110.57825 37624 ft 394 kts 230°
2026-04-26 00:13 37.71922 -110.62850 37629 ft 395 kts 230°
2026-04-26 00:13 37.68146 -110.67871 37627 ft 394 kts 230°
2026-04-26 00:14 37.64375 -110.72871 37630 ft 393 kts 230°
2026-04-26 00:14 37.60632 -110.77829 37631 ft 393 kts 230°
2026-04-26 00:15 37.56864 -110.82821 37637 ft 393 kts 230°
2026-04-26 00:15 37.53097 -110.87795 37635 ft 392 kts 230°
2026-04-26 00:16 37.49336 -110.92755 37640 ft 391 kts 230°
2026-04-26 00:16 37.45610 -110.97669 37646 ft 391 kts 230°
2026-04-26 00:17 37.41851 -111.02620 37633 ft 391 kts 230°
2026-04-26 00:17 37.38088 -111.07554 37645 ft 391 kts 230°
2026-04-26 00:18 37.34320 -111.12483 37655 ft 391 kts 230°
2026-04-26 00:18 37.30583 -111.17372 37650 ft 391 kts 230°
2026-04-26 00:19 37.26814 -111.22294 37656 ft 391 kts 230°
2026-04-26 00:19 37.23057 -111.27208 37672 ft 390 kts 230°
2026-04-26 00:20 37.19315 -111.32080 37619 ft 381 kts 230°
2026-04-26 00:20 37.17495 -111.34445 37488 ft 372 kts 230°
2026-04-26 00:20 37.15717 -111.36750 37359 ft 363 kts 230°
2026-04-26 00:20 37.14004 -111.38969 37176 ft 355 kts 230°
2026-04-26 00:21 37.12296 -111.41186 36836 ft 352 kts 230°
2026-04-26 00:21 37.10601 -111.43393 36360 ft 351 kts 230°
2026-04-26 00:21 37.08907 -111.45604 35877 ft 351 kts 230°
2026-04-26 00:21 37.07209 -111.47813 35736 ft 353 kts 230°
2026-04-26 00:22 37.05502 -111.50027 35764 ft 355 kts 230°
2026-04-26 00:22 37.02084 -111.54438 35771 ft 355 kts 230°
2026-04-26 00:23 36.98643 -111.58884 35770 ft 355 kts 231°
2026-04-26 00:23 36.96033 -111.64023 35764 ft 351 kts 249°
2026-04-26 00:24 36.94343 -111.69744 35743 ft 350 kts 249°
2026-04-26 00:24 36.92653 -111.75400 35745 ft 350 kts 249°
2026-04-26 00:25 36.90937 -111.81099 35748 ft 351 kts 249°
2026-04-26 00:25 36.89222 -111.86802 35750 ft 351 kts 249°
2026-04-26 00:26 36.87505 -111.92502 35755 ft 351 kts 249°
2026-04-26 00:26 36.85786 -111.98203 35769 ft 351 kts 249°
2026-04-26 00:27 36.84077 -112.03870 35782 ft 351 kts 249°
2026-04-26 00:27 36.82349 -112.09571 35794 ft 351 kts 249°
2026-04-26 00:28 36.80620 -112.15269 35805 ft 351 kts 249°
2026-04-26 00:28 36.78887 -112.20964 35816 ft 351 kts 249°
2026-04-26 00:29 36.77150 -112.26652 35816 ft 351 kts 248°
2026-04-26 00:29 36.75416 -112.32296 35818 ft 351 kts 248°
2026-04-26 00:30 36.73677 -112.37981 35819 ft 351 kts 248°
2026-04-26 00:30 36.71937 -112.43672 35818 ft 351 kts 248°
2026-04-26 00:31 36.70195 -112.49363 35813 ft 352 kts 248°
2026-04-26 00:31 36.68455 -112.55016 35816 ft 352 kts 248°
2026-04-26 00:32 36.66700 -112.60711 35818 ft 352 kts 248°
2026-04-26 00:32 36.64065 -112.69239 35819 ft 352 kts 248°
2026-04-26 00:33 36.62300 -112.74916 35821 ft 351 kts 248°
2026-04-26 00:33 36.60542 -112.80589 35821 ft 351 kts 248°
2026-04-26 00:34 36.58777 -112.86253 35819 ft 351 kts 248°
2026-04-26 00:34 36.57021 -112.91873 35817 ft 351 kts 248°
2026-04-26 00:35 36.55256 -112.97527 35814 ft 350 kts 248°
2026-04-26 00:35 36.53493 -113.03169 35809 ft 350 kts 248°
2026-04-26 00:36 36.51727 -113.08808 35799 ft 350 kts 248°
2026-04-26 00:36 36.49971 -113.14407 35789 ft 350 kts 248°
2026-04-26 00:37 36.48200 -113.20041 35782 ft 350 kts 248°
2026-04-26 00:37 36.46416 -113.25673 35774 ft 350 kts 247°
2026-04-26 00:38 36.44629 -113.31304 35771 ft 351 kts 247°
2026-04-26 00:38 36.42850 -113.36899 35764 ft 351 kts 247°
2026-04-26 00:39 36.41049 -113.42530 35755 ft 351 kts 246°
2026-04-26 00:39 36.39047 -113.48049 35753 ft 351 kts 244°
2026-04-26 00:40 36.36945 -113.53515 35750 ft 351 kts 244°
2026-04-26 00:40 36.34866 -113.58998 35740 ft 351 kts 244°
2026-04-26 00:41 36.32806 -113.64480 35737 ft 351 kts 244°
2026-04-26 00:41 36.30772 -113.69930 35730 ft 351 kts 244°
2026-04-26 00:42 36.28712 -113.75410 35725 ft 351 kts 244°
2026-04-26 00:42 36.26650 -113.80886 35715 ft 351 kts 244°
2026-04-26 00:43 36.24584 -113.86358 35713 ft 350 kts 244°
2026-04-26 00:43 36.22536 -113.91787 35706 ft 350 kts 244°
2026-04-26 00:44 36.20469 -113.97246 35699 ft 350 kts 244°
2026-04-26 00:44 36.18382 -114.02750 35692 ft 359 kts 244°
2026-04-26 00:45 36.16249 -114.08389 35685 ft 363 kts 243°
2026-04-26 00:45 36.14112 -114.14015 35679 ft 364 kts 243°
2026-04-26 00:46 36.11956 -114.19670 35677 ft 364 kts 243°
2026-04-26 00:46 36.09796 -114.25325 35674 ft 366 kts 243°
2026-04-26 00:47 36.07051 -114.30675 35668 ft 379 kts 229°
2026-04-26 00:47 36.03509 -114.35568 35670 ft 384 kts 230°
2026-04-26 00:48 35.99975 -114.40461 35663 ft 384 kts 230°
2026-04-26 00:48 35.96422 -114.45391 35666 ft 384 kts 230°
2026-04-26 00:49 35.92863 -114.50311 35681 ft 384 kts 229°
2026-04-26 00:49 35.89305 -114.55226 35691 ft 384 kts 229°
2026-04-26 00:50 35.85743 -114.60133 35702 ft 384 kts 229°
2026-04-26 00:50 35.82174 -114.65036 35713 ft 384 kts 229°
2026-04-26 00:51 35.78607 -114.69933 35724 ft 384 kts 229°
2026-04-26 00:51 35.75057 -114.74793 35729 ft 384 kts 229°
2026-04-26 00:52 35.71485 -114.79685 35738 ft 384 kts 229°
2026-04-26 00:52 35.67912 -114.84573 35747 ft 384 kts 229°
2026-04-26 00:53 35.64336 -114.89463 35759 ft 384 kts 229°
2026-04-26 00:53 35.60789 -114.94320 35768 ft 384 kts 229°
2026-04-26 00:54 35.57221 -114.99200 35777 ft 384 kts 229°
2026-04-26 00:54 35.53640 -115.04075 35790 ft 384 kts 229°
2026-04-26 00:55 35.50061 -115.08936 35794 ft 384 kts 229°
2026-04-26 00:55 35.46427 -115.13740 35795 ft 384 kts 228°
2026-04-26 00:56 35.42760 -115.18504 35798 ft 384 kts 228°
2026-04-26 00:56 35.39116 -115.23233 35799 ft 384 kts 228°
2026-04-26 00:57 35.35459 -115.27993 35803 ft 384 kts 228°
2026-04-26 00:57 35.31803 -115.32748 35800 ft 383 kts 228°
2026-04-26 00:58 35.28151 -115.37490 35800 ft 383 kts 228°
2026-04-26 00:58 35.24490 -115.42231 35798 ft 383 kts 228°
2026-04-26 00:59 35.20859 -115.46940 35796 ft 383 kts 228°
2026-04-26 00:59 35.17201 -115.51682 35791 ft 383 kts 228°
2026-04-26 01:00 35.13536 -115.56415 35788 ft 383 kts 228°
2026-04-26 01:00 35.09867 -115.61132 35784 ft 383 kts 227°
2026-04-26 01:01 35.06211 -115.65804 35788 ft 383 kts 227°
2026-04-26 01:01 35.02533 -115.70503 35786 ft 383 kts 227°
2026-04-26 01:02 34.98860 -115.75183 35791 ft 381 kts 227°
2026-04-26 01:02 34.95207 -115.79839 35785 ft 379 kts 227°
2026-04-26 01:03 34.91564 -115.84471 35779 ft 378 kts 227°
2026-04-26 01:03 34.87950 -115.89054 35771 ft 377 kts 227°
2026-04-26 01:04 34.84323 -115.93659 35764 ft 376 kts 227°
2026-04-26 01:04 34.80700 -115.98250 35760 ft 376 kts 227°
2026-04-26 01:05 34.77078 -116.02829 35758 ft 375 kts 227°
2026-04-26 01:05 34.73472 -116.07411 35752 ft 375 kts 227°
2026-04-26 01:06 34.69905 -116.11971 35752 ft 374 kts 227°
2026-04-26 01:06 34.66313 -116.16548 35751 ft 374 kts 227°
2026-04-26 01:07 34.62718 -116.21123 35761 ft 374 kts 227°
2026-04-26 01:07 34.59116 -116.25686 35769 ft 374 kts 227°
2026-04-26 01:08 34.57310 -116.27975 35193 ft 378 kts 227°
2026-04-26 01:08 34.55488 -116.30284 34593 ft 378 kts 227°
2026-04-26 01:08 34.53705 -116.32539 34233 ft 374 kts 227°
2026-04-26 01:08 34.51907 -116.34808 33837 ft 373 kts 226°
2026-04-26 01:09 34.50114 -116.37072 33390 ft 372 kts 226°
2026-04-26 01:09 34.48317 -116.39339 32990 ft 373 kts 226°
2026-04-26 01:09 34.46517 -116.41608 32575 ft 374 kts 226°
2026-04-26 01:09 34.44716 -116.43877 32159 ft 373 kts 226°
2026-04-26 01:10 34.42927 -116.46134 31754 ft 371 kts 227°
2026-04-26 01:10 34.41344 -116.48597 31248 ft 371 kts 237°
2026-04-26 01:10 34.40163 -116.51373 30748 ft 371 kts 241°
2026-04-26 01:10 34.39023 -116.54168 30250 ft 370 kts 240°
2026-04-26 01:11 34.37883 -116.56952 29749 ft 368 kts 240°
2026-04-26 01:11 34.36744 -116.59721 29239 ft 367 kts 240°
2026-04-26 01:11 34.35608 -116.62477 28773 ft 365 kts 240°
2026-04-26 01:11 34.34476 -116.65219 28336 ft 363 kts 240°
2026-04-26 01:12 34.33363 -116.67911 27897 ft 362 kts 240°
2026-04-26 01:12 34.32250 -116.70631 27424 ft 359 kts 241°
2026-04-26 01:12 34.31158 -116.73339 27015 ft 358 kts 241°
2026-04-26 01:12 34.30075 -116.76047 26602 ft 357 kts 241°
2026-04-26 01:13 34.28998 -116.78743 26174 ft 355 kts 241°
2026-04-26 01:13 34.27929 -116.81419 25750 ft 353 kts 241°
2026-04-26 01:13 34.26862 -116.84078 25306 ft 350 kts 241°
2026-04-26 01:13 34.25798 -116.86719 24874 ft 348 kts 241°
2026-04-26 01:14 34.24751 -116.89310 24436 ft 347 kts 241°
2026-04-26 01:14 34.23695 -116.91915 23997 ft 345 kts 241°
2026-04-26 01:14 34.22644 -116.94511 23548 ft 343 kts 241°
2026-04-26 01:14 34.21598 -116.97087 23038 ft 341 kts 241°
2026-04-26 01:15 34.20713 -116.99740 22579 ft 341 kts 248°
2026-04-26 01:15 34.19977 -117.02452 22118 ft 339 kts 248°
2026-04-26 01:15 34.19248 -117.05156 21670 ft 338 kts 249°
2026-04-26 01:15 34.18525 -117.07844 21198 ft 336 kts 249°
2026-04-26 01:16 34.17804 -117.10517 20749 ft 334 kts 249°
2026-04-26 01:16 34.17090 -117.13171 20299 ft 332 kts 249°
2026-04-26 01:16 34.16377 -117.15812 19844 ft 330 kts 249°
2026-04-26 01:16 34.15671 -117.18401 19396 ft 328 kts 249°
2026-04-26 01:17 34.14954 -117.21008 18945 ft 327 kts 249°
2026-04-26 01:17 34.14234 -117.23609 18485 ft 326 kts 249°
2026-04-26 01:17 34.13516 -117.26200 18034 ft 325 kts 249°
2026-04-26 01:17 34.12804 -117.28780 17582 ft 323 kts 249°
2026-04-26 01:18 34.12096 -117.31348 17140 ft 320 kts 249°
2026-04-26 01:18 34.11402 -117.33865 16732 ft 315 kts 249°
2026-04-26 01:18 34.10715 -117.36357 16275 ft 311 kts 249°
2026-04-26 01:18 34.10049 -117.38817 15852 ft 306 kts 250°
2026-04-26 01:19 34.09426 -117.41256 15435 ft 302 kts 251°
2026-04-26 01:19 34.08838 -117.43639 15030 ft 299 kts 251°
2026-04-26 01:19 34.08254 -117.46031 14640 ft 296 kts 251°
2026-04-26 01:19 34.07674 -117.48397 14230 ft 293 kts 251°
2026-04-26 01:20 34.07015 -117.50706 13800 ft 289 kts 245°
2026-04-26 01:20 34.06217 -117.52928 13346 ft 289 kts 245°
2026-04-26 01:20 34.05415 -117.55147 12916 ft 289 kts 245°
2026-04-26 01:20 34.04612 -117.57371 12466 ft 289 kts 245°
2026-04-26 01:21 34.03809 -117.59592 12036 ft 288 kts 245°
2026-04-26 01:21 34.03012 -117.61799 11590 ft 287 kts 245°
2026-04-26 01:21 34.02229 -117.63971 11147 ft 286 kts 245°
2026-04-26 01:21 34.01437 -117.66166 10718 ft 286 kts 245°
2026-04-26 01:22 34.00745 -117.68375 10450 ft 278 kts 253°
2026-04-26 01:22 34.00451 -117.70651 10228 ft 273 kts 261°
2026-04-26 01:22 34.00246 -117.72913 10108 ft 270 kts 261°
2026-04-26 01:22 34.00030 -117.75158 9974 ft 270 kts 261°
2026-04-26 01:23 33.99808 -117.77410 9580 ft 270 kts 261°
2026-04-26 01:23 33.99589 -117.79646 9229 ft 268 kts 261°
2026-04-26 01:23 33.99373 -117.81840 8891 ft 267 kts 261°
2026-04-26 01:23 33.99362 -117.81951 8876 ft 267 kts 261°
2026-04-26 01:24 33.99159 -117.84110 8548 ft 265 kts 262°
2026-04-26 01:24 33.98946 -117.86312 8214 ft 264 kts 261°
2026-04-26 01:24 33.98730 -117.88509 7882 ft 263 kts 262°
2026-04-26 01:24 33.98515 -117.90695 7535 ft 263 kts 262°
2026-04-26 01:25 33.98299 -117.92877 7207 ft 261 kts 262°
2026-04-26 01:25 33.98083 -117.95039 6883 ft 259 kts 262°
2026-04-26 01:25 33.97868 -117.97193 6555 ft 258 kts 262°
2026-04-26 01:25 33.97655 -117.99330 6225 ft 256 kts 262°
2026-04-26 01:26 33.97438 -118.01429 5896 ft 255 kts 262°
2026-04-26 01:26 33.97222 -118.03549 5576 ft 255 kts 262°
2026-04-26 01:26 33.97015 -118.05636 5416 ft 248 kts 262°
2026-04-26 01:26 33.96811 -118.07689 5138 ft 246 kts 262°
2026-04-26 01:27 33.96608 -118.09729 4822 ft 246 kts 262°
2026-04-26 01:27 33.96405 -118.11773 4484 ft 244 kts 262°
2026-04-26 01:27 33.96204 -118.13785 4162 ft 240 kts 262°
2026-04-26 01:27 33.96007 -118.15759 3841 ft 234 kts 262°
2026-04-26 01:28 33.95815 -118.17683 3542 ft 228 kts 262°
2026-04-26 01:28 33.95632 -118.19512 3245 ft 217 kts 262°
2026-04-26 01:28 33.95457 -118.21252 2961 ft 202 kts 262°
2026-04-26 01:28 33.95293 -118.22877 2697 ft 189 kts 262°
2026-04-26 01:29 33.95139 -118.24412 2451 ft 181 kts 263°
2026-04-26 01:29 33.94992 -118.25865 2231 ft 169 kts 263°
2026-04-26 01:29 33.94854 -118.27234 1989 ft 161 kts 263°
2026-04-26 01:29 33.94723 -118.28534 1779 ft 152 kts 262°
2026-04-26 01:30 33.94601 -118.29746 1573 ft 140 kts 263°
2026-04-26 01:30 33.94488 -118.30864 1391 ft 129 kts 263°
2026-04-26 01:30 33.94382 -118.31900 1211 ft 123 kts 263°
2026-04-26 01:30 33.94280 -118.32913 1046 ft 121 kts 264°
2026-04-26 01:31 33.94177 -118.33915 879 ft 121 kts 262°
2026-04-26 01:31 33.94090 -118.34920 708 ft 121 kts 264°
2026-04-26 01:31 33.93987 -118.35920 518 ft 120 kts 261°
2026-04-26 01:31 33.93884 -118.36922 374 ft 121 kts 261°
2026-04-26 01:32 33.93774 -118.37917 231 ft 119 kts 261°
2026-04-26 01:32 33.93677 -118.38882 129 ft 106 kts 261°
2026-04-26 01:32 33.93599 -118.39623 126 ft 67 kts 263°
2026-04-26 01:32 33.93564 -118.40008 126 ft 40 kts 268°
2026-04-26 01:33 33.93603 -118.40291 124 ft 26 kts 290°
2026-04-26 01:33 33.93625 -118.40449 126 ft 20 kts 266°
2026-04-26 01:33 33.93612 -118.40588 126 ft 14 kts 261°
2026-04-26 01:33 33.93599 -118.40701 126 ft 13 kts 263°
2026-04-26 01:34 33.93597 -118.40808 124 ft 10 kts 285°
2026-04-26 01:34 33.93599 -118.40816 122 ft 0 kts 287°
2026-04-26 01:37 33.93602 -118.40831 123 ft 2 kts 287°
2026-04-26 01:37 33.93628 -118.40876 126 ft 14 kts 318°
2026-04-26 01:37 33.93757 -118.40909 126 ft 22 kts 353°
2026-04-26 01:37 33.93865 -118.40901 125 ft 12 kts 59°
2026-04-26 01:38 33.93879 -118.40794 126 ft 15 kts 83°
2026-04-26 01:38 33.93895 -118.40645 126 ft 20 kts 83°
2026-04-26 01:38 33.93912 -118.40470 122 ft 22 kts 83°
2026-04-26 01:38 33.93933 -118.40278 126 ft 24 kts 83°
2026-04-26 01:39 33.93953 -118.40068 126 ft 26 kts 83°
2026-04-26 01:39 33.93975 -118.39868 126 ft 20 kts 82°
2026-04-26 01:39 33.94084 -118.39824 125 ft 19 kts
2026-04-26 01:39 33.94207 -118.39844 124 ft 12 kts 352°
2026-04-26 01:40 33.94229 -118.39901 124 ft 10 kts 260°
2026-04-26 01:40 33.94229 -118.39910 126 ft 0 kts 263°